Back to catalog

STARLINK-35628

AliveCommunicationsVLEO
NORAD 66123·PAYLOAD·🇺🇸 United States

Launched Oct 22, 2025 from Vandenberg Space Force Base

Loading…

Next Passes (next 24 hours)

TLE

FreshSource: CelesTrak SupGP

Epoch: Sep 14, 2026, 21:25 UTC

1 66123C 25237K   26257.89284722  .00042698  00000+0  12614-2 0  2572
2 66123  53.1573 237.8345 0001448 101.3858 130.9212 15.34373039    16

Track STARLINK-35628 in real time with AllMySat

Download on the App Store